TimeCST,TemperatureF,Dew PointF,Humidity,Sea Level PressureIn,VisibilityMPH,Wind Direction,Wind SpeedMPH,Gust SpeedMPH,PrecipitationIn,Events,Conditions,WindDirDegrees,DateUTC
12:14 AM,10.4,8.6,92,30.03,7.0,NNE,3.5,-,N/A,,Clear,20,2013-12-13 06:14:00
12:33 AM,10.4,6.8,85,30.03,7.0,NE,6.9,-,N/A,,Clear,40,2013-12-13 06:33:00
12:54 AM,10.4,8.6,92,30.02,7.0,NE,8.1,-,N/A,,Clear,40,2013-12-13 06:54:00
1:14 AM,10.4,6.8,85,30.02,10.0,Calm,Calm,-,N/A,,Clear,0,2013-12-13 07:14:00
1:33 AM,10.4,8.6,92,30.02,10.0,Calm,Calm,-,N/A,,Clear,0,2013-12-13 07:33:00
1:54 AM,10.4,6.8,85,30.02,10.0,North,4.6,-,N/A,,Clear,10,2013-12-13 07:54:00
2:13 AM,10.4,8.6,92,30.02,10.0,Calm,Calm,-,N/A,,Clear,0,2013-12-13 08:13:00
2:34 AM,10.4,6.8,85,30.02,10.0,NNE,3.5,-,N/A,,Clear,30,2013-12-13 08:34:00
2:54 AM,10.4,8.6,92,30.01,10.0,NNE,4.6,-,N/A,,Clear,30,2013-12-13 08:54:00
3:14 AM,10.4,8.6,92,30.00,10.0,NNE,5.8,-,N/A,,Clear,30,2013-12-13 09:14:00
3:33 AM,12.2,8.6,85,30.00,10.0,NNE,4.6,-,N/A,,Clear,30,2013-12-13 09:33:00
3:54 AM,10.4,6.8,85,30.00,10.0,Calm,Calm,-,N/A,,Clear,0,2013-12-13 09:54:00
4:13 AM,12.2,10.4,92,30.00,10.0,NE,4.6,-,N/A,,Clear,40,2013-12-13 10:13:00
4:34 AM,14.0,12.2,93,30.00,10.0,ENE,5.8,-,N/A,,Clear,70,2013-12-13 10:34:00
4:54 AM,17.6,14.0,86,30.00,10.0,ENE,8.1,-,N/A,,Scattered Clouds,60,2013-12-13 10:54:00
5:13 AM,17.6,14.0,86,30.00,10.0,NE,8.1,-,N/A,,Scattered Clouds,50,2013-12-13 11:13:00
5:34 AM,17.6,14.0,86,30.00,10.0,NE,13.8,19.6,N/A,,Scattered Clouds,50,2013-12-13 11:34:00
5:54 AM,17.6,14.0,86,29.98,10.0,NE,16.1,21.9,N/A,,Overcast,50,2013-12-13 11:54:00
6:14 AM,17.6,14.0,86,29.99,7.0,NE,15.0,20.7,N/A,,Overcast,50,2013-12-13 12:14:00
6:33 AM,17.6,14.0,86,29.99,7.0,ENE,12.7,17.3,N/A,,Mostly Cloudy,60,2013-12-13 12:33:00
6:54 AM,17.6,14.0,86,30.00,7.0,ENE,12.7,16.1,N/A,,Scattered Clouds,60,2013-12-13 12:54:00
7:13 AM,17.6,12.2,79,30.01,7.0,ENE,11.5,-,N/A,,Clear,60,2013-12-13 13:13:00
7:34 AM,15.8,12.2,86,30.00,7.0,NE,15.0,-,N/A,,Clear,50,2013-12-13 13:34:00
7:54 AM,15.8,12.2,86,30.00,7.0,ENE,15.0,19.6,N/A,,Clear,60,2013-12-13 13:54:00
8:13 AM,15.8,12.2,86,30.01,7.0,ENE,11.5,19.6,N/A,,Scattered Clouds,60,2013-12-13 14:13:00
8:34 AM,14.0,12.2,93,30.02,5.0,ENE,15.0,-,N/A,,Scattered Clouds,60,2013-12-13 14:34:00
8:54 AM,14.0,10.4,86,30.03,3.0,ENE,13.8,-,N/A,,Mist,70,2013-12-13 14:54:00
9:14 AM,14.0,10.4,86,30.02,3.0,ENE,13.8,-,N/A,,Mist,60,2013-12-13 15:14:00
9:34 AM,14.0,10.4,86,30.03,4.0,ENE,12.7,-,N/A,,Clear,60,2013-12-13 15:34:00
9:54 AM,14.0,10.4,86,30.04,5.0,ENE,11.5,-,N/A,,Clear,60,2013-12-13 15:54:00
10:13 AM,15.8,12.2,86,30.04,4.0,ENE,12.7,-,N/A,,Clear,60,2013-12-13 16:13:00
10:34 AM,17.6,12.2,79,30.05,7.0,ENE,12.7,-,N/A,,Clear,60,2013-12-13 16:34:00
10:54 AM,17.6,12.2,79,30.04,7.0,NE,12.7,18.4,N/A,,Clear,50,2013-12-13 16:54:00
11:13 AM,17.6,12.2,79,30.04,7.0,ENE,15.0,-,N/A,,Clear,60,2013-12-13 17:13:00
11:34 AM,19.4,12.2,74,30.03,7.0,NE,15.0,-,N/A,,Clear,50,2013-12-13 17:34:00
11:54 AM,19.4,14.0,80,30.03,7.0,NE,13.8,20.7,N/A,,Clear,50,2013-12-13 17:54:00
12:13 PM,19.4,14.0,80,30.02,5.0,ENE,18.4,24.2,N/A,,Haze,60,2013-12-13 18:13:00
12:34 PM,19.4,14.0,80,30.02,5.0,ENE,16.1,24.2,N/A,,Haze,60,2013-12-13 18:34:00
12:53 PM,19.4,14.0,80,30.02,5.0,ENE,17.3,25.3,N/A,,Haze,60,2013-12-13 18:53:00
1:14 PM,19.4,14.0,80,30.01,5.0,NE,16.1,-,N/A,,Haze,50,2013-12-13 19:14:00
1:34 PM,19.4,14.0,80,30.02,4.0,NE,19.6,24.2,N/A,,Haze,50,2013-12-13 19:34:00
1:53 PM,19.4,14.0,80,30.02,5.0,ENE,15.0,20.7,N/A,,Haze,60,2013-12-13 19:53:00
2:14 PM,17.6,12.2,79,30.02,5.0,NE,16.1,21.9,N/A,,Haze,50,2013-12-13 20:14:00
2:34 PM,17.6,12.2,79,30.02,5.0,ENE,12.7,20.7,N/A,,Haze,60,2013-12-13 20:34:00
2:53 PM,17.6,12.2,79,30.03,5.0,ENE,17.3,20.7,N/A,,Haze,70,2013-12-13 20:53:00
3:14 PM,17.6,12.2,79,30.04,5.0,ENE,16.1,21.9,N/A,,Haze,70,2013-12-13 21:14:00
3:34 PM,17.6,12.2,79,30.04,3.0,ENE,13.8,18.4,N/A,,Haze,60,2013-12-13 21:34:00
3:53 PM,17.6,12.2,79,30.05,4.0,ENE,16.1,20.7,N/A,,Haze,70,2013-12-13 21:53:00
4:14 PM,17.6,12.2,79,30.06,4.0,ENE,17.3,23.0,N/A,,Haze,70,2013-12-13 22:14:00
4:34 PM,17.6,12.2,79,30.07,5.0,ENE,11.5,-,N/A,,Haze,60,2013-12-13 22:34:00
4:53 PM,17.6,12.2,79,30.08,7.0,NE,15.0,19.6,N/A,,Overcast,50,2013-12-13 22:53:00
5:14 PM,17.6,12.2,79,30.08,7.0,NE,10.4,-,N/A,,Overcast,50,2013-12-13 23:14:00
5:34 PM,17.6,12.2,79,30.09,7.0,NE,17.3,27.6,N/A,,Overcast,50,2013-12-13 23:34:00
5:53 PM,15.8,10.4,79,30.10,10.0,NE,18.4,24.2,N/A,,Mostly Cloudy,40,2013-12-13 23:53:00
6:14 PM,15.8,10.4,79,30.11,10.0,NE,15.0,21.9,N/A,,Mostly Cloudy,40,2013-12-14 00:14:00
6:34 PM,15.8,10.4,79,30.12,10.0,NE,13.8,20.7,N/A,,Overcast,50,2013-12-14 00:34:00
6:54 PM,15.8,10.4,79,30.12,10.0,NE,13.8,20.7,N/A,,Overcast,50,2013-12-14 00:54:00
7:14 PM,15.8,10.4,79,30.13,10.0,NE,15.0,18.4,N/A,,Overcast,50,2013-12-14 01:14:00
7:34 PM,15.8,10.4,79,30.13,10.0,NE,12.7,-,N/A,,Overcast,50,2013-12-14 01:34:00
7:54 PM,14.0,10.4,86,30.14,10.0,NE,15.0,20.7,N/A,,Overcast,50,2013-12-14 01:54:00
8:13 PM,14.0,10.4,86,30.14,10.0,NE,15.0,21.9,N/A,,Overcast,40,2013-12-14 02:13:00
8:34 PM,14.0,10.4,86,30.14,10.0,NE,16.1,20.7,N/A,,Overcast,40,2013-12-14 02:34:00
8:54 PM,14.0,8.6,79,30.15,10.0,NE,16.1,21.9,N/A,,Mostly Cloudy,40,2013-12-14 02:54:00
9:13 PM,14.0,8.6,79,30.17,10.0,NE,15.0,19.6,N/A,,Overcast,40,2013-12-14 03:13:00
9:34 PM,14.0,8.6,79,30.17,10.0,NE,16.1,23.0,N/A,,Overcast,50,2013-12-14 03:34:00
9:54 PM,14.0,8.6,79,30.18,10.0,NE,11.5,-,N/A,,Overcast,40,2013-12-14 03:54:00
10:13 PM,12.2,8.6,85,30.18,10.0,NE,13.8,20.7,N/A,,Overcast,40,2013-12-14 04:13:00
10:34 PM,12.2,8.6,85,30.19,10.0,NE,12.7,-,N/A,,Overcast,40,2013-12-14 04:34:00
10:54 PM,12.2,8.6,85,30.19,10.0,NE,11.5,19.6,N/A,,Mostly Cloudy,40,2013-12-14 04:54:00
11:14 PM,12.2,8.6,85,30.18,10.0,NE,12.7,18.4,N/A,,Overcast,50,2013-12-14 05:14:00
11:34 PM,12.2,8.6,85,30.19,10.0,NE,10.4,-,N/A,,Overcast,40,2013-12-14 05:34:00
11:53 PM,12.2,8.6,85,30.20,10.0,NE,12.7,-,N/A,,Overcast,40,2013-12-14 05:53:00